2022-03-03 00:03:01 r, 20.21m,0000000000Hz,0000666269c,0000001.446s,-011.0C,00002191
2022-03-03 00:13:04 r, 20.21m,0000000001Hz,0000666842c,0000001.447s,-011.0C,00002191
2022-03-03 00:23:01 r, 20.21m,0000000000Hz,0000666385c,0000001.446s,-011.0C,00002191
2022-03-03 00:33:04 r, 20.22m,0000000001Hz,0000670381c,0000001.455s,-011.0C,00002191
2022-03-03 00:43:02 r, 20.22m,0000000001Hz,0000668745c,0000001.451s,-011.0C,00002191
2022-03-03 00:53:01 r, 20.21m,0000000001Hz,0000665216c,0000001.444s,-011.0C,00002191
2022-03-03 01:03:04 r, 20.21m,0000000001Hz,0000666071c,0000001.445s,-011.0C,00002191
2022-03-03 01:13:02 r, 20.21m,0000000001Hz,0000665285c,0000001.444s,-011.3C,00002191
2022-03-03 01:23:01 r, 20.21m,0000000001Hz,0000663434c,0000001.440s,-011.3C,00002191
2022-03-03 01:33:01 r, 20.21m,0000000001Hz,0000666133c,0000001.446s,-011.7C,00002191
2022-03-03 01:43:03 r, 20.21m,0000000000Hz,0000666351c,0000001.446s,-012.0C,00002191
2022-03-03 01:53:01 r, 20.21m,0000000001Hz,0000665071c,0000001.443s,-012.0C,00002191
2022-03-03 02:03:01 r, 20.21m,0000000001Hz,0000665303c,0000001.444s,-012.0C,00002191
2022-03-03 02:13:04 r, 20.21m,0000000001Hz,0000663396c,0000001.440s,-012.0C,00002191
2022-03-03 02:23:01 r, 20.21m,0000000001Hz,0000662323c,0000001.437s,-012.0C,00002191
2022-03-03 02:33:01 r, 20.21m,0000000001Hz,0000661290c,0000001.435s,-012.3C,00002191
2022-03-03 02:43:04 r, 20.21m,0000000000Hz,0000661389c,0000001.435s,-012.3C,00002191
2022-03-03 02:53:01 r, 20.20m,0000000001Hz,0000658374c,0000001.429s,-012.3C,00002191
2022-03-03 03:03:01 r, 20.20m,0000000000Hz,0000656498c,0000001.425s,-012.3C,00002191
2022-03-03 03:13:02 r, 20.19m,0000000000Hz,0000654516c,0000001.420s,-012.3C,00002191
2022-03-03 03:23:01 r, 20.19m,0000000001Hz,0000654627c,0000001.421s,-012.3C,00002191
2022-03-03 03:33:01 r, 20.19m,0000000001Hz,0000654737c,0000001.421s,-012.3C,00002191
2022-03-03 03:43:02 r, 20.19m,0000000001Hz,0000653887c,0000001.419s,-012.6C,00002191
2022-03-03 03:53:01 r, 20.19m,0000000001Hz,0000651862c,0000001.415s,-012.6C,00002191
2022-03-03 04:03:01 r, 20.19m,0000000001Hz,0000651847c,0000001.415s,-012.6C,00002191
2022-03-03 04:13:02 r, 20.19m,0000000000Hz,0000650202c,0000001.411s,-012.9C,00002191
2022-03-03 04:23:01 r, 20.19m,0000000001Hz,0000648896c,0000001.408s,-012.9C,00002191
2022-03-03 04:33:01 r, 20.19m,0000000001Hz,0000649559c,0000001.410s,-012.9C,00002191
2022-03-03 04:43:04 r, 20.18m,0000000001Hz,0000646971c,0000001.404s,-012.9C,00002191
2022-03-03 04:53:01 r, 20.18m,0000000001Hz,0000643165c,0000001.396s,-012.9C,00002191
2022-03-03 05:03:01 r, 20.17m,0000000001Hz,0000638492c,0000001.386s,-012.9C,00002191
2022-03-03 05:13:02 r, 20.16m,0000000000Hz,0000632910c,0000001.374s,-012.6C,00002191
2022-03-03 05:23:01 r, 20.15m,0000000000Hz,0000624805c,0000001.356s,-012.9C,00002191
2022-03-03 05:33:01 r, 20.12m,0000000001Hz,0000610072c,0000001.324s,-012.9C,00002191
2022-03-03 05:43:02 r, 20.03m,0000000001Hz,0000559474c,0000001.214s,-012.9C,00002191
2022-03-03 05:53:01 r, 19.69m,0000000002Hz,0000412631c,0000000.895s,-012.9C,00002191
2022-03-03 06:03:01 r, 18.87m,0000000002Hz,0000193626c,0000000.420s,-012.9C,00002191
2022-03-03 06:13:03 r, 17.56m,0000000008Hz,0000057670c,0000000.125s,-012.9C,00002191
2022-03-03 06:23:02 r, 15.84m,0000000038Hz,0000011951c,0000000.026s,-012.9C,00002191
2022-03-03 06:33:01 r, 13.76m,0000000267Hz,0000000000c,0000000.000s,-012.6C,00002191
2022-03-03 06:43:04 r, 11.59m,0000001957Hz,0000000000c,0000000.000s,-012.6C,00002191
2022-03-03 06:53:02 r, 09.67m,0000011471Hz,0000000000c,0000000.000s,-012.3C,00002191
2022-03-03 07:03:01 r, 08.19m,0000044713Hz,0000000000c,0000000.000s,-012.6C,00002191
2022-03-03 07:13:04 r, 07.17m,0000114192Hz,0000000000c,0000000.000s,-012.6C,00002191
2022-03-03 07:23:02 r, 06.43m,0000225485Hz,0000000000c,0000000.000s,-012.6C,00002191
2022-03-03 07:33:01 r, 05.91m,0000364921Hz,0000000000c,0000000.000s,-012.0C,00002191
2022-03-03 07:43:02 r, 00.00m,0000521131Hz,0000000000c,0000000.000s,-010.7C,00002191
2022-03-03 07:53:03 r, 00.00m,0000599667Hz,0000000000c,0000000.000s,-009.4C,00002191
2022-03-03 08:03:01 r, 00.00m,0000599515Hz,0000000000c,0000000.000s,-007.8C,00002191
2022-03-03 08:13:03 r, 00.00m,0000599455Hz,0000000000c,0000000.000s,-006.5C,00002191
2022-03-03 08:23:02 r, 00.00m,0000599246Hz,0000000000c,0000000.000s,-005.2C,00002191
2022-03-03 08:33:01 r, 00.00m,0000599141Hz,0000000000c,0000000.000s,-004.2C,00002191
2022-03-03 08:43:02 r, 00.00m,0000599183Hz,0000000000c,0000000.000s,-003.6C,00002191
2022-03-03 08:53:04 r, 00.00m,0000599039Hz,0000000000c,0000000.000s,-003.0C,00002191
2022-03-03 09:03:01 r, 00.00m,0000599044Hz,0000000000c,0000000.000s,-002.0C,00002191
2022-03-03 09:13:04 r, 00.00m,0000599013Hz,0000000000c,0000000.000s,-001.0C,00002191
2022-03-03 09:23:02 r, 00.00m,0000598914Hz,0000000000c,0000000.000s,-000.4C,00002191
2022-03-03 09:33:01 r, 00.00m,0000598903Hz,0000000000c,0000000.000s,-000.4C,00002191
2022-03-03 09:43:02 r, 00.00m,0000598821Hz,0000000000c,0000000.000s, 000.1C,00002191
2022-03-03 09:53:03 r, 00.00m,0000598789Hz,0000000000c,0000000.000s, 000.9C,00002191
2022-03-03 10:03:01 r, 00.00m,0000598767Hz,0000000000c,0000000.000s, 001.2C,00002191
2022-03-03 10:13:03 r, 00.00m,0000598620Hz,0000000000c,0000000.000s, 002.2C,00002191
2022-03-03 10:23:02 r, 00.00m,0000598494Hz,0000000000c,0000000.000s, 003.2C,00002191
2022-03-03 10:33:01 r, 00.00m,0000598384Hz,0000000000c,0000000.000s, 004.5C,00002191
2022-03-03 10:43:02 r, 00.00m,0000598349Hz,0000000000c,0000000.000s, 005.4C,00002191
2022-03-03 10:53:04 r, 00.00m,0000598230Hz,0000000000c,0000000.000s, 006.1C,00002191
2022-03-03 11:03:01 r, 00.00m,0000598400Hz,0000000000c,0000000.000s, 005.4C,00002191
2022-03-03 11:13:01 r, 00.00m,0000598299Hz,0000000000c,0000000.000s, 005.8C,00002191
2022-03-03 11:23:02 r, 00.00m,0000598231Hz,0000000000c,0000000.000s, 005.8C,00002191
2022-03-03 11:33:01 r, 00.00m,0000598384Hz,0000000000c,0000000.000s, 004.8C,00002191
2022-03-03 11:43:04 r, 00.00m,0000598165Hz,0000000000c,0000000.000s, 006.4C,00002191
2022-03-03 11:53:02 r, 00.00m,0000598244Hz,0000000000c,0000000.000s, 006.7C,00002191
2022-03-03 12:03:01 r, 00.00m,0000598148Hz,0000000000c,0000000.000s, 007.0C,00002191
2022-03-03 12:13:02 r, 00.00m,0000598292Hz,0000000000c,0000000.000s, 006.1C,00002191
2022-03-03 12:23:03 r, 00.00m,0000598215Hz,0000000000c,0000000.000s, 006.4C,00002191
2022-03-03 12:33:01 r, 00.00m,0000598134Hz,0000000000c,0000000.000s, 007.0C,00002191
2022-03-03 12:43:01 r, 00.00m,0000598154Hz,0000000000c,0000000.000s, 008.3C,00002191
2022-03-03 12:53:04 r, 00.00m,0000597965Hz,0000000000c,0000000.000s, 009.3C,00002191
2022-03-03 13:03:01 r, 00.00m,0000597776Hz,0000000000c,0000000.000s, 010.9C,00002191
2022-03-03 13:13:01 r, 00.00m,0000597555Hz,0000000000c,0000000.000s, 012.8C,00002191
2022-03-03 13:23:04 r, 00.00m,0000597441Hz,0000000000c,0000000.000s, 014.1C,00002191
2022-03-03 13:33:01 r, 00.00m,0000597488Hz,0000000000c,0000000.000s, 013.8C,00002191
2022-03-03 13:43:04 r, 00.00m,0000597471Hz,0000000000c,0000000.000s, 013.2C,00002191
2022-03-03 13:53:02 r, 00.00m,0000597594Hz,0000000000c,0000000.000s, 012.5C,00002191
2022-03-03 14:03:01 r, 00.00m,0000597666Hz,0000000000c,0000000.000s, 011.6C,00002191
2022-03-03 14:13:04 r, 00.00m,0000597667Hz,0000000000c,0000000.000s, 010.9C,00002191
2022-03-03 14:23:02 r, 00.00m,0000597658Hz,0000000000c,0000000.000s, 011.6C,00002191
2022-03-03 14:33:01 r, 00.00m,0000597601Hz,0000000000c,0000000.000s, 012.2C,00002191
2022-03-03 14:43:02 r, 00.00m,0000597526Hz,0000000000c,0000000.000s, 012.5C,00002191
2022-03-03 14:53:03 r, 00.00m,0000597561Hz,0000000000c,0000000.000s, 013.5C,00002191
2022-03-03 15:03:01 r, 00.00m,0000597482Hz,0000000000c,0000000.000s, 013.8C,00002191
2022-03-03 15:13:03 r, 00.00m,0000597528Hz,0000000000c,0000000.000s, 013.8C,00002191
2022-03-03 15:23:02 r, 00.00m,0000597619Hz,0000000000c,0000000.000s, 013.8C,00002191
2022-03-03 15:33:01 r, 00.00m,0000597577Hz,0000000000c,0000000.000s, 014.1C,00002191
2022-03-03 15:43:02 r, 00.00m,0000597705Hz,0000000000c,0000000.000s, 013.8C,00002191
2022-03-03 15:53:04 r, 00.00m,0000597634Hz,0000000000c,0000000.000s, 013.5C,00002191
2022-03-03 16:03:01 r, 00.00m,0000597698Hz,0000000000c,0000000.000s, 012.8C,00002191
2022-03-03 16:13:04 r, 00.00m,0000597913Hz,0000000000c,0000000.000s, 011.9C,00002191
2022-03-03 16:23:02 r, 00.00m,0000597951Hz,0000000000c,0000000.000s, 010.9C,00002191
2022-03-03 16:33:01 r, 00.00m,0000598031Hz,0000000000c,0000000.000s, 009.9C,00002191
2022-03-03 16:43:04 r, 00.00m,0000597986Hz,0000000000c,0000000.000s, 009.6C,00002191
2022-03-03 16:53:02 r, 00.00m,0000598055Hz,0000000000c,0000000.000s, 009.3C,00002191
2022-03-03 17:03:01 r, 00.00m,0000598201Hz,0000000000c,0000000.000s, 008.0C,00002191
2022-03-03 17:13:02 r, 00.00m,0000598374Hz,0000000000c,0000000.000s, 007.4C,00002191
2022-03-03 17:23:04 r, 00.00m,0000537224Hz,0000000000c,0000000.000s, 005.8C,00002191
2022-03-03 17:33:01 r, 00.00m,0000417855Hz,0000000000c,0000000.000s, 004.5C,00002191
2022-03-03 17:43:03 r, 06.15m,0000293561Hz,0000000000c,0000000.000s, 003.2C,00002191
2022-03-03 17:53:02 r, 06.51m,0000209445Hz,0000000000c,0000000.000s, 001.9C,00002191
2022-03-03 18:03:01 r, 07.09m,0000123777Hz,0000000000c,0000000.000s, 000.3C,00002191
2022-03-03 18:13:04 r, 07.92m,0000057338Hz,0000000000c,0000000.000s,-000.7C,00002191
2022-03-03 18:23:02 r, 09.09m,0000019490Hz,0000000000c,0000000.000s,-001.7C,00002191
2022-03-03 18:33:01 r, 10.80m,0000004045Hz,0000000000c,0000000.000s,-002.3C,00002191
2022-03-03 18:43:01 r, 12.86m,0000000611Hz,0000000000c,0000000.000s,-002.6C,00002191
2022-03-03 18:53:02 r, 15.09m,0000000078Hz,0000005923c,0000000.013s,-003.3C,00002191
2022-03-03 19:03:01 r, 17.05m,0000000013Hz,0000036266c,0000000.079s,-003.6C,00002191
2022-03-03 19:13:01 r, 18.50m,0000000003Hz,0000136364c,0000000.296s,-003.9C,00002191
2022-03-03 19:23:02 r, 19.42m,0000000002Hz,0000320565c,0000000.696s,-004.2C,00002191
2022-03-03 19:33:01 r, 19.81m,0000000001Hz,0000457861c,0000000.994s,-004.2C,00002191
2022-03-03 19:43:01 r, 19.97m,0000000001Hz,0000528983c,0000001.148s,-004.2C,00002191
2022-03-03 19:53:04 r, 19.98m,0000000001Hz,0000532679c,0000001.156s,-004.2C,00002191
2022-03-03 20:03:01 r, 19.93m,0000000001Hz,0000508148c,0000001.103s,-004.2C,00002191
2022-03-03 20:13:01 r, 19.91m,0000000001Hz,0000500310c,0000001.086s,-004.6C,00002191
2022-03-03 20:23:04 r, 19.88m,0000000001Hz,0000486835c,0000001.056s,-004.6C,00002191
2022-03-03 20:33:01 r, 19.79m,0000000001Hz,0000446482c,0000000.969s,-004.6C,00002191
2022-03-03 20:43:01 r, 19.66m,0000000001Hz,0000398178c,0000000.864s,-004.9C,00002191
2022-03-03 20:53:02 r, 19.59m,0000000002Hz,0000372583c,0000000.809s,-004.6C,00002191
2022-03-03 21:03:01 r, 19.65m,0000000001Hz,0000392439c,0000000.852s,-004.9C,00002191
2022-03-03 21:13:01 r, 19.43m,0000000002Hz,0000321570c,0000000.698s,-004.9C,00002191
2022-03-03 21:23:02 r, 19.17m,0000000002Hz,0000252470c,0000000.548s,-004.6C,00002191
2022-03-03 21:33:01 r, 19.14m,0000000002Hz,0000245854c,0000000.534s,-004.2C,00002191
2022-03-03 21:43:01 r, 19.05m,0000000002Hz,0000225908c,0000000.490s,-003.9C,00002191
2022-03-03 21:53:02 r, 19.00m,0000000002Hz,0000216923c,0000000.471s,-003.6C,00002191
2022-03-03 22:03:01 r, 18.99m,0000000003Hz,0000216059c,0000000.469s,-003.6C,00002191
2022-03-03 22:13:01 r, 19.05m,0000000002Hz,0000225341c,0000000.489s,-003.3C,00002191
2022-03-03 22:23:03 r, 19.02m,0000000002Hz,0000220683c,0000000.479s,-003.3C,00002191
2022-03-03 22:33:01 r, 18.86m,0000000003Hz,0000190473c,0000000.413s,-003.3C,00002191
2022-03-03 22:43:01 r, 18.79m,0000000003Hz,0000178582c,0000000.388s,-003.0C,00002191
2022-03-03 22:53:03 r, 18.74m,0000000003Hz,0000170879c,0000000.371s,-003.0C,00002191
2022-03-03 23:03:02 r, 18.78m,0000000003Hz,0000177807c,0000000.386s,-002.6C,00002191
2022-03-03 23:13:01 r, 18.88m,0000000002Hz,0000192925c,0000000.419s,-002.6C,00002191
2022-03-03 23:23:02 r, 18.77m,0000000003Hz,0000175483c,0000000.381s,-002.6C,00002191
2022-03-03 23:33:02 r, 18.76m,0000000003Hz,0000173704c,0000000.377s,-002.6C,00002191
2022-03-03 23:43:01 r, 18.81m,0000000002Hz,0000181586c,0000000.394s,-002.6C,00002191
2022-03-03 23:53:02 r, 18.89m,0000000002Hz,0000195830c,0000000.425s,-002.6C,00002191
